Date String (YYYY-MM-DD hh:mm:ss) UTC,Instrument flags,Ambient pressure (hPa),Sample flow (lpm),Bypass flow (lpm),Sample temperature (°C),Ambient temperature (°C),ASC tube jacket temperature (°C),LED temperature (°C),Box temperature (°C),Sample RH (%),Span deviation,Mass concentration (μg/m³),Mass concentration (μg/m³),Mass concentration (μg/m³)
DateTimeUTC,F1_M11,P_M11,Q1_M11,Q2_M11,T1_M11,T2_M11,T3_M11,T4_M11,T5_M11,U1_M11,ZSPAN_M11,X0_M11,X2_M11,X1_M11
2022-03-01 08:00:00,,0828.1,5.01,0.00,25.8,25.0,00.0,34.8,27.5,07.3,0000.0,0001.66,0000.85,0000.49
2022-03-01 08:01:00,,0828.1,4.98,0.00,25.8,25.0,00.0,34.8,27.5,07.3,0000.0,0001.83,0000.90,0000.50
2022-03-01 08:02:00,,0828.1,5.00,0.00,25.8,25.0,00.0,34.8,27.5,07.4,0000.0,0001.92,0000.93,0000.50
2022-03-01 08:03:00,,0828.2,5.01,0.00,25.8,25.0,00.0,34.8,27.5,07.4,0000.0,0001.95,0000.93,0000.49
2022-03-01 08:04:00,,0828.2,5.01,0.00,25.8,25.0,00.0,34.8,27.5,07.5,0000.0,0001.90,0000.94,0000.49
2022-03-01 08:05:00,,0828.2,5.01,0.00,25.8,25.0,00.0,34.8,27.5,07.3,0000.0,0001.78,0000.91,0000.49
2022-03-01 08:06:00,,0828.1,4.98,0.00,25.8,25.0,00.0,34.8,27.6,07.5,0000.0,0001.76,0000.89,0000.48
2022-03-01 08:07:00,,0828.1,5.01,0.00,25.8,25.0,00.0,34.8,27.5,07.4,0000.0,0001.72,0000.87,0000.48
2022-03-01 08:08:00,,0828.1,5.00,0.00,25.8,25.0,00.0,34.8,27.5,07.3,0000.0,0001.67,0000.83,0000.48
2022-03-01 08:09:00,,0828.2,5.00,0.00,25.8,25.1,00.0,34.8,27.5,07.3,0000.0,0001.70,0000.85,0000.47
2022-03-01 08:10:00,,0828.1,4.99,0.00,25.8,25.0,00.0,34.8,27.6,07.4,0000.0,0001.81,0000.90,0000.48
2022-03-01 08:11:00,,0828.2,5.01,0.00,25.8,25.0,00.0,34.8,27.5,07.3,0000.0,0001.77,0000.90,0000.49
2022-03-01 08:12:00,,0828.1,5.00,0.00,25.8,25.0,00.0,34.8,27.5,07.3,0000.0,0001.62,0000.85,0000.49
2022-03-01 08:13:00,,0828.2,5.00,0.00,25.8,25.0,00.0,34.8,27.6,07.4,0000.0,0001.57,0000.85,0000.50
2022-03-01 08:14:00,,0828.3,5.00,0.00,25.8,25.1,00.0,34.8,27.6,07.5,0000.0,0001.55,0000.86,0000.51
2022-03-01 08:15:00,,0828.3,4.99,0.00,25.8,25.1,00.0,34.8,27.6,07.3,0000.0,0001.52,0000.86,0000.52
2022-03-01 08:16:00,,0828.3,4.99,0.00,25.8,25.1,00.0,34.9,27.6,07.3,0000.0,0001.45,0000.84,0000.52
2022-03-01 08:17:00,,0828.2,5.01,0.00,25.8,25.1,00.0,34.8,27.6,07.3,0000.0,0001.45,0000.87,0000.53
2022-03-01 08:18:00,,0828.2,5.01,0.00,25.8,25.1,00.0,34.9,27.6,07.3,0000.0,0001.62,0000.92,0000.53
2022-03-01 08:19:00,,0828.2,5.01,0.00,25.9,25.1,00.0,34.9,27.7,07.3,0000.0,0002.35,0000.95,0000.54
2022-03-01 08:20:00,,0828.1,4.98,0.00,25.9,25.1,00.0,34.9,27.7,07.4,0000.0,0002.71,0000.93,0000.54
2022-03-01 08:21:00,,0828.0,5.01,0.00,25.9,25.1,00.0,34.9,27.6,07.2,0000.0,0002.53,0000.85,0000.54
2022-03-01 08:22:00,,0828.0,5.01,0.00,25.9,25.1,00.0,34.9,27.7,07.1,0000.0,0002.60,0000.88,0000.53
2022-03-01 08:23:00,,0828.2,4.98,0.00,25.9,25.1,00.0,34.9,27.6,07.2,0000.0,0002.67,0000.90,0000.53
2022-03-01 08:24:00,,0828.1,5.01,0.00,25.9,25.1,00.0,34.9,27.6,07.3,0000.0,0002.69,0000.90,0000.53
2022-03-01 08:25:00,,0828.0,5.00,0.00,25.9,25.1,00.0,34.9,27.6,07.4,0000.0,0002.72,0000.92,0000.53
2022-03-01 08:26:00,,0828.1,5.00,0.00,25.9,25.1,00.0,34.9,27.6,07.5,0000.0,0002.65,0000.89,0000.52
2022-03-01 08:27:00,,0828.1,5.00,0.00,25.9,25.1,00.0,34.9,27.6,07.5,0000.0,0002.72,0000.93,0000.53
2022-03-01 08:28:00,,0828.1,4.99,0.00,25.8,25.1,00.0,34.9,27.5,07.3,0000.0,0002.66,0000.90,0000.52
2022-03-01 08:29:00,,0828.0,5.00,0.00,25.8,25.1,00.0,34.9,27.5,07.5,0000.0,0002.54,0000.88,0000.52
2022-03-01 08:30:00,,0828.2,5.00,0.00,25.8,25.0,00.0,34.9,27.5,07.5,0000.0,0002.03,0000.89,0000.51
2022-03-01 08:31:00,,0828.1,5.01,0.00,25.8,25.0,00.0,34.9,27.5,07.5,0000.0,0001.57,0000.89,0000.51
2022-03-01 08:32:00,,0828.1,5.01,0.00,25.8,25.0,00.0,34.9,27.6,07.5,0000.0,0001.59,0000.90,0000.51
2022-03-01 08:33:00,,0828.0,5.01,0.00,25.8,25.0,00.0,34.9,27.6,07.5,0000.0,0001.62,0000.88,0000.51
2022-03-01 08:34:00,,0828.0,4.99,0.00,25.8,25.0,00.0,34.9,27.5,07.7,0000.0,0001.61,0000.87,0000.52
2022-03-01 08:35:00,,0827.9,5.00,0.00,25.8,25.0,00.0,34.9,27.4,07.5,0000.0,0001.55,0000.86,0000.53
2022-03-01 08:36:00,,0828.1,5.00,0.00,25.8,25.0,00.0,34.9,27.4,07.7,0000.0,0001.47,0000.84,0000.53
2022-03-01 08:37:00,,0828.0,5.00,0.00,25.8,24.9,00.0,34.9,27.4,07.6,0000.0,0001.54,0000.87,0000.53
2022-03-01 08:38:00,,0828.1,5.01,0.00,25.7,24.9,00.0,34.9,27.4,07.8,0000.0,0001.62,0000.88,0000.53
2022-03-01 08:39:00,,0828.1,5.00,0.00,25.7,24.9,00.0,34.8,27.4,07.7,0000.0,0001.63,0000.89,0000.54
2022-03-01 08:40:00,,0828.1,5.00,0.00,25.7,24.9,00.0,34.8,27.4,07.5,0000.0,0001.77,0000.94,0000.55
2022-03-01 08:41:00,,0828.0,5.00,0.00,25.7,24.9,00.0,34.8,27.4,07.4,0000.0,0001.74,0000.95,0000.56
2022-03-01 08:42:00,,0828.0,4.99,0.00,25.7,24.9,00.0,34.8,27.4,07.5,0000.0,0001.79,0000.96,0000.56
2022-03-01 08:43:00,,0828.0,4.99,0.00,25.7,24.9,00.0,34.8,27.4,07.6,0000.0,0001.78,0000.96,0000.56
2022-03-01 08:44:00,,0828.0,5.00,0.00,25.7,24.9,00.0,34.8,27.4,07.6,0000.0,0001.78,0000.98,0000.55
2022-03-01 08:45:00,,0828.0,5.00,0.00,25.7,24.9,00.0,34.8,27.5,07.7,0000.0,0001.99,0001.03,0000.55
2022-03-01 08:46:00,,0828.0,4.99,0.00,25.7,24.9,00.0,34.8,27.5,07.6,0000.0,0002.03,0001.06,0000.56
2022-03-01 08:47:00,,0828.1,4.99,0.00,25.7,24.9,00.0,34.8,27.5,07.6,0000.0,0002.10,0001.08,0000.56
2022-03-01 08:48:00,,0828.1,5.01,0.00,25.7,24.9,00.0,34.8,27.5,07.8,0000.0,0003.01,0001.09,0000.56
2022-03-01 08:49:00,,0828.0,5.00,0.00,25.7,25.0,00.0,34.8,27.5,07.7,0000.0,0003.74,0001.07,0000.55
2022-03-01 08:50:00,,0828.1,4.98,0.00,25.8,25.0,00.0,34.8,27.5,07.6,0000.0,0003.92,0001.12,0000.56
2022-03-01 08:51:00,,0828.0,4.98,0.00,25.8,25.0,00.0,34.8,27.6,07.6,0000.0,0003.91,0001.10,0000.56
2022-03-01 08:52:00,,0828.1,5.01,0.00,25.8,25.0,00.0,34.8,27.6,07.6,0000.0,0003.76,0001.04,0000.56
2022-03-01 08:53:00,,0828.0,5.01,0.00,25.8,25.0,00.0,34.8,27.5,07.9,0000.0,0003.65,0001.01,0000.56
2022-03-01 08:54:00,,0828.1,4.99,0.00,25.8,25.0,00.0,34.8,27.5,07.8,0000.0,0003.80,0001.01,0000.57
2022-03-01 08:55:00,,0828.1,4.99,0.00,25.8,24.9,00.0,34.8,27.5,07.8,0000.0,0003.96,0000.98,0000.57
2022-03-01 08:56:00,,0827.9,5.01,0.00,25.8,24.9,00.0,34.8,27.6,07.9,0000.0,0003.74,0000.93,0000.57
2022-03-01 08:57:00,,0828.0,5.01,0.00,25.8,24.9,00.0,34.8,27.5,07.7,0000.0,0003.91,0000.95,0000.57
2022-03-01 08:58:00,,0827.9,5.00,0.00,25.7,25.0,00.0,34.8,27.5,07.7,0000.0,0003.81,0000.91,0000.56
2022-03-01 08:59:00,,0827.9,4.99,0.00,25.7,25.0,00.0,34.8,27.6,07.7,0000.0,0003.01,0000.90,0000.56
